カタログに戻る

USA 374

運用中軍事VLEO
NORAD 59834·PAYLOAD·🇺🇸 United States

打ち上げ May 22, 2024 から Vandenberg Space Force Base

Loading…

次のパス (今後24時間)

TLE

古いSource: Mike McCants

元期: Aug 19, 2026, 21:44 UTC

1 59834U 24096W   26231.90603145 0.00000000  00000-0  00000-0 0    05
2 59834  70.0182 151.9834 0003000 210.9151 149.0849 14.96714200    01

AllMySatでUSA 374をリアルタイム追跡

Download on the App Store